This is the latest recevied weather packets stored in our database for station/object VA3BOO. If no packets are shown the sender has not sent any weather packets the latest 1 day(s).
| Time | Temp. | Humidity | Pressure | Rain* | Wind** | Luminosity | Snow |
|---|---|---|---|---|---|---|---|
| 1777989604 | 17.78° C | 66% | 1000.7 hPa | 0 mm | 1.34 m/s, 161° | 205 W/m² | - |
| 1777989304 | 17.78° C | 65% | 1000.6 hPa | 0 mm | 1.34 m/s, 207° | 259 W/m² | - |
| 1777989004 | 17.22° C | 67% | 1000.8 hPa | 0 mm | 1.34 m/s, 212° | 294 W/m² | - |
| 1777988705 | 16.67° C | 69% | 1000.8 hPa | 0 mm | 0.89 m/s, 168° | 218 W/m² | - |
| 1777988404 | 16.67° C | 69% | 1000.6 hPa | 0 mm | 0.89 m/s, 194° | 160 W/m² | - |
| 1777988104 | 16.67° C | 70% | 1000.7 hPa | 0 mm | 0.89 m/s, 213° | 145 W/m² | - |
| 1777987804 | 16.67° C | 70% | 1000.6 hPa | 0 mm | 1.34 m/s, 162° | 144 W/m² | - |
| 1777987504 | 16.67° C | 69% | 1000.5 hPa | 0 mm | 1.34 m/s, 155° | 110 W/m² | - |
| 1777987204 | 17.22° C | 69% | 1000.3 hPa | 0 mm | 1.34 m/s, 176° | 93 W/m² | - |
| 1777986904 | 16.67° C | 70% | 1000.4 hPa | 0 mm | 1.34 m/s, 176° | 197 W/m² | - |
| 1777986604 | 16.67° C | 71% | 1000.5 hPa | 0 mm | 1.34 m/s, 168° | 210 W/m² | - |
| 1777986304 | 16.67° C | 71% | 1000.4 hPa | 0 mm | 0.89 m/s, 144° | 193 W/m² | - |
| 1777986004 | 16.67° C | 71% | 1000.4 hPa | 0 mm | 0.89 m/s, 145° | 150 W/m² | - |
| 1777985704 | 16.67° C | 70% | 1000.3 hPa | 0 mm | 0.89 m/s, 197° | 151 W/m² | - |
| 1777985404 | 16.67° C | 71% | 1000.4 hPa | 0 mm | 0.89 m/s, 223° | 171 W/m² | - |
| 1777985104 | 16.67° C | 69% | 1000.5 hPa | 0 mm | 0.89 m/s, 221° | 204 W/m² | - |
| 1777984804 | 16.67° C | 72% | 1000.6 hPa | 0 mm | 0.89 m/s, 165° | 173 W/m² | - |
| 1777984504 | 16.11° C | 73% | 1000.2 hPa | 0 mm | 0.89 m/s, 160° | 156 W/m² | - |
| 1777984204 | 15.56° C | 75% | 1000.7 hPa | 0 mm | 0.45 m/s, 185° | 168 W/m² | - |
| 1777983904 | 15° C | 76% | 1000.4 hPa | 0 mm | 0.45 m/s, 191° | 182 W/m² | - |
| 1777983604 | 15° C | 79% | 1000.4 hPa | 0 mm | 0.45 m/s, 177° | 142 W/m² | - |
| 1777983304 | 14.44° C | 78% | 1000.5 hPa | 0 mm | 0.89 m/s, 158° | 131 W/m² | - |
| 1777983015 | 14.44° C | 81% | 1000.5 hPa | 0 mm | 0.45 m/s, 170° | 119 W/m² | - |
| 1777982704 | 15° C | 82% | 1000.6 hPa | 0 mm | 0.45 m/s, 180° | 98 W/m² | - |
| 1777982404 | 15.56° C | 77% | 1000.9 hPa | 0 mm | 0.45 m/s, 172° | 47 W/m² | - |
* Rain latest hour (hover to see other rain measurements)
** Current wind speed in m/s (hover to see current wind gust speed)